Regional Weather Roundup
Issued by NWS

Home | Current Version | Previous Version | Graphics & Text | Print | Product List | Glossary Off
Versions: 1 2 3 4 5 6 7 8 9 10 11 12 13 14 15 16 17 18 19 20 21 22 23 24 25 26 27 28 29 30 31 32 33 34 35 36 37 38 39 40 41 42 43 44 45 46 47 48 49 50

000
ASUS43 KFSD 231110
RWRSD

WEATHER ROUNDUP FOR SOUTH DAKOTA
NATIONAL WEATHER SERVICE SIOUX FALLS SD
600 AM CDT SAT MAY 23 2015

NOTE: "FAIR" INDICATES FEW OR NO CLOUDS BELOW 12,000 FEET WITH NO
SIGNIFICANT WEATHER AND/OR OBSTRUCTIONS TO VISIBILITY.


SDZ001>005-009-010-012>017-231200-
NORTHWEST AND NORTH CENTRAL SOUTH DAKOTA

CITY           SKY/WX    TMP DP  RH WIND       PRES   REMARKS
BUFFALO          N/A     43  41  93 E8        30.00R
FAITH            N/A     46  42  86 SE9       30.10S
MOBRIDGE       CLOUDY    48  44  86 E10       30.14R
$$

SDZ012>016-024>037-041>051-057-063-072>074-231200-
SOUTHWEST AND SOUTH CENTRAL SOUTH DAKOTA

CITY           SKY/WX    TMP DP  RH WIND       PRES   REMARKS
RAPID CTY ARPT CLOUDY    47  44  90 SE8       30.05F
PIERRE         CLOUDY    50  45  83 E6        30.12F
CUSTER         FOG       40  39  97 CALM      30.05F VSB 1/4
ELLSWORTH AFB  CLOUDY    47  45  93 SE12      30.04
PHILIP         CLOUDY    48  45  89 SE6       30.10S
PINE RIDGE     CLOUDY    48  44  86 E6        30.06S
SPEARFISH      CLOUDY    43  39  87 CALM      30.04S
WINNER         LGT RAIN  51  48  89 SE10      30.11F FOG
$$

SDZ004>011-016>023-039-040-231200-
NORTHEAST SOUTH DAKOTA

CITY           SKY/WX    TMP DP  RH WIND       PRES   REMARKS
ABERDEEN       CLOUDY    46  43  89 CALM      30.20R
WATERTOWN      CLOUDY    50  44  80 CALM      30.21R
BROOKINGS      CLOUDY    54  46  76 E3        30.22S
SISSETON         N/A     48  40  73 S5        30.20R
$$

SDZ017-020-022-023-036>040-048>070-231200-
SOUTHEAST SOUTH DAKOTA

CITY           SKY/WX    TMP DP  RH WIND       PRES   REMARKS
SIOUX FALLS    LGT RAIN  54  49  83 S5        30.20R
HURON          CLOUDY    52  47  83 SE6       30.19S
CHAMBERLAIN    DRIZZLE   50  48  94 E8        30.14S
MITCHELL       LGT RAIN  52  49  89 E9        30.18S
YANKTON        CLOUDY    54  48  82 E5        30.17F
$$

ABBREVIATIONS USED IN REMARKS
   TC - TEMPERATURE IN CELSIUS
  WCI - WIND CHILL INDEX
   HX - HEAT INDEX
  VSB - VISIBILITY




USA.gov is the U.S. government's official web portal to all federal, state and local government web resources and services.